Location: Tel Aviv-Yafo
(32.0853°N, 34.7818°E)
Time: 05:29:26
(UTC+02:00)

Tiangong - Visible Passes

Search period start: 17 January 2026 00:00
Search period end: 27 January 2026 00:00
Orbit: 378 x 394 km, 41.5° (Epoch: 16 January)

Date Brightness Start Highest point End Pass type
(mag) Time Alt. Az. Time Alt. Az. Time Alt. Az.
17 Jan -0.9 05:02:52 33° S 05:03:32 38° SE 05:06:33 10° ENE visible
18 Jan -1.9 05:39:29 24° W 05:41:07 50° NNW 05:44:14 10° NE visible
19 Jan 0.0 04:43:33 24° ENE 04:43:33 24° ENE 04:45:00 10° ENE visible
20 Jan -1.0 05:19:41 29° NNW 05:19:41 29° NNW 05:22:20 10° NE visible
21 Jan -0.1 05:55:38 12° NW 05:57:23 17° N 05:59:35 10° NE visible
22 Jan 0.3 04:59:13 16° NNE 04:59:13 16° NNE 05:00:19 10° NE visible
23 Jan 0.0 05:34:56 14° NNW 05:35:46 15° N 05:37:42 10° NE visible
24 Jan 0.0 06:11:31 10° NW 06:13:43 17° N 06:15:55 10° NE visible
25 Jan 0.1 05:13:57 15° N 05:14:01 15° N 05:15:58 10° NE visible
26 Jan -0.2 05:49:30 11° NW 05:51:51 21° NNE 05:54:24 10° ENE visible
